Regional Weather Roundup
Issued by NWS

Home | Current Version | Previous Version | Text Only | Print | Product List | Glossary Off
Versions: 1 2 3 4 5 6 7 8 9 10 11 12 13 14 15 16 17 18 19 20 21 22 23 24 25 26 27 28 29 30 31 32 33 34 35 36 37 38 39 40 41 42 43 44 45 46 47 48 49 50

000
ASUS45 KSLC 171310
RWRUT

UTAH REGIONAL WEATHER ROUNDUP
NATIONAL WEATHER SERVICE SALT LAKE CITY UT
600 AM MST SUN DEC 17 2017

UTZ001>011-023>025-171400-

NORTHERN UTAH

CITY           SKY/WX    TMP DP  RH WIND       PRES   REMARKS
BRIGHAM CITY   CLEAR     24  19  79 CALM      30.19R
HILL AFB       PTCLDY    25  23  94 NW6       30.16R WCI  18
LOGAN          MOCLDY    17  13  84 E3        30.19R FOG
OGDEN          CLEAR     24  20  84 NW6       30.16R WCI  17
SALT LAKE CITY MOCLDY    30  25  81 W6        30.17R WCI  24
TOOELE VALLEY  CLOUDY    30  27  86 NW3       30.19R
WENDOVER       PTCLDY    23  16  74 N3        30.21R
HEBER CITY     CLOUDY    28  19  69 N7        30.09R WCI  21
WEST JORDAN    CLOUDY    28  25  91 NW6       30.17R WCI  21

$$

UTZ011>015-024>027-171400-

CENTRAL/NORTHEAST UTAH

CITY           SKY/WX    TMP DP  RH WIND       PRES   REMARKS
PROVO AIRPORT  CLOUDY    30  25  81 NW12      30.16R WCI  20
MOAB/CANYONLAN PTCLDY    15   6  67 W3        30.01R
DELTA          CLOUDY    27  25  93 CALM      30.16R
PRICE          CLEAR     29  18  63 NW10G21   29.99R WCI  20
RICHFIELD      CLOUDY    28  27  93 N5        30.12R WCI  23
ROOSEVELT      CLOUDY    19  12  73 CALM      30.04R
VERNAL         CLOUDY    18  12  77 W7        30.02R WCI   9

$$

UTZ013>016-019>022-027-171400-

SOUTHERN UTAH

CITY           SKY/WX    TMP DP  RH WIND       PRES   REMARKS
BRYCE CANYON   MOCLDY    16  15  96 NW6       30.01R WCI   7
CEDAR CITY     CLOUDY    26  22  84 N10       30.07R WCI  16
MILFORD        CLOUDY    27  22  81 N10       30.13R WCI  17
ST GEORGE      MOSUNNY   37  22  54 SW8       30.04R WCI  31
HANKSVILLE     CLEAR     12   1  62 MISG      30.05R
KANAB          CLEAR     19  10  68 NE5       30.03R WCI  13
BLANDING         N/A     25   2  37 N9        30.04S WCI  15

$$

REGIONAL REPORTS     COLORADO/ARIZONA

CITY           SKY/WX    TMP DP  RH WIND       PRES   REMARKS
CRAIG, CO      CLOUDY    19  13  77 CALM      30.02R
GRAND JUNCTION CLOUDY    13   2  61 CALM      30.02R
RIFLE, CO      CLOUDY    14   6  70 CALM      30.04R
MONTROSE, CO   CLOUDY    16   7  67 SE7       30.04R WCI   6
CORTEZ, CO     CLOUDY    20   2  45 NE3       29.99R
COLORADO CITY    N/A     16  10  79 CALM      30.02R
PAGE, AZ       PTCLDY    28  11  48 CALM      30.00R
GRAND CANYON   PTCLDY    16   1  51 CALM      29.96R
KINGMAN, AZ    CLEAR     34  20  56 E12       29.94R WCI  25
FLAGSTAFF, AZ  MOCLDY    26  10  50 E6        29.94R WCI  19

$$

REGIONAL REPORTS    NEVADA/IDAHO/WYOMING

CITY           SKY/WX    TMP DP  RH WIND       PRES   REMARKS
LAS VEGAS, NV  PTCLDY    48  20  32 N20G28    30.00R
ELY, NY        PTCLDY     4   1  88 S7        30.13R WCI  -8
ELKO, NV       PTCLDY    13   9  84 CALM      30.20S
POCATELLO, ID  FLURRIES  25  21  85 SW15      30.19S WCI  13
BURLEY, ID     CLEAR     23  16  74 W6        30.20R WCI  16
EVANSTON, WY   CLOUDY    19  17  92 NW3       30.07R
ROCK SPRINGS,  CLOUDY    20  16  84 W23       30.00R WCI   3

$$



USA.gov is the U.S. government's official web portal to all federal, state and local government web resources and services.